Regional Weather Roundup
Issued by NWS

Home | Current Version | Previous Version | Text Only | Print | Product List | Glossary On
Versions: 1 2 3 4 5 6 7 8 9 10 11 12 13 14 15 16 17 18 19 20 21 22 23 24 25 26 27 28 29 30 31 32 33 34 35 36 37 38 39 40 41 42 43 44 45 46 47 48 49 50
000
ASUS43 KDTX 220210
RWRMI
MICHIGAN HOURLY REGIONAL WEATHER ROUNDUP
NATIONAL WEATHER SERVICE DETROIT/PONTIAC MI
1000 PM EDT SAT OCT 21 2017

NOTE: "FAIR" INDICATES FEW OR NO CLOUDS BELOW 12,000 FEET WITH NO
SIGNIFICANT WEATHER AND/OR OBSTRUCTION TO VISIBILITY.

MIZ047>049-052>055-059>063-066>070-074>076-081>083-220300-
SOUTHEAST LOWER MICHIGAN

CITY           SKY/WX    TMP DP  RH WIND       PRES   REMARKS
ADRIAN         MOCLDY    59  48  67 SW7       30.18R
ALMA           MOCLDY    65  46  49 S9        30.11S
ANN ARBOR      CLOUDY    54  52  93 CALM      30.16S
BAD AXE        PTCLDY    61  52  71 S9        30.14F
CARO           PTCLDY    63  52  67 S8        30.13F
DETROIT CITY   CLEAR     62  53  72 S7        30.17S
DETROIT        CLOUDY    65  54  67 SE8       30.17S
FLINT          PTCLDY    60  52  74 S9        30.14F
GROSSE ILE     CLOUDY    64  56  74 S12       30.16S
HILLSDALE      CLOUDY    63  41  45 S8        30.16S
HOWELL         MOCLDY    62  54  75 SE6       30.15S

CITY           SKY/WX    TMP DP  RH WIND       PRES   REMARKS
JACKSON        MOCLDY    65  49  56 S6        30.15R
LAMBERTVILLE   MOCLDY    66  41  40 S6        30.17R
LANSING        MOCLDY    64  48  56 S9        30.14R
LAPEER         FAIR      63  51  64 S7        30.15F
MASON          CLOUDY    64  50  61 CALM      30.14S
MONROE         MOCLDY    64  50  59 S5        30.16S
MT. CLEMENS    PTCLDY    58  56  91 S6        30.15S
PONTIAC        MOCLDY    61  53  75 SE6       30.15F
PORT HOPE        N/A     65  52  62 S8        30.12S
PORT HURON     PTCLDY    63  50  63 SE7       30.17F
TRI CITIES     PTCLDY    66  54  65 S13       30.11F
MIDLAND        FAIR      68  50  52 S7        30.09F
TROY           PTCLDY    62  51  66 S3        30.18F
SAGINAW HB     CLOUDY    63  54  72 S9        30.11S
$$
MIZ043>046-050>051-056>058-064>065-071>073-077>080-220300-
SOUTHWEST LOWER MICHIGAN

CITY           SKY/WX    TMP DP  RH WIND       PRES   REMARKS
BATTLE CREEK   CLOUDY    64  43  46 S8        30.13S
BENTON HARBOR  CLEAR     68  52  56 S8        30.06S
BIG RAPIDS     PTCLDY    64  42  45 S8        30.07S
COLDWATER      MOCLDY    65  41  41 S7        30.14S
FREMONT        FAIR      65  49  54 S6        30.05S
HOLLAND        MOCLDY    67  53  61 S10       30.07S
GRAND RAPIDS   CLOUDY    65  49  56 S9        30.09S
IONIA          FAIR      65  45  47 S9        30.10S
KALAMAZOO      CLEAR     67  44  43 SE7       30.11F
LUDINGTON      CLEAR     66  51  57 S10       30.01S
MARSHALL       MOCLDY    64  44  48 SE5       30.13S
MOUNT PLEASANT MOCLDY    66  46  46 S5        30.10R
MUSKEGON       CLOUDY    68  51  54 S10       30.05S
SOUTH HAVEN    CLEAR     68  53  58 SE7       30.07R
$$
MIZ016>042-220300-
NORTHERN LOWER MICHIGAN

CITY           SKY/WX    TMP DP  RH WIND       PRES   REMARKS
ALPENA         MOCLDY    65  50  58 S10       30.07S
BEAVER ISLAND  CLEAR     67  48  51 S10G16    29.99R
BELLAIRE       CLOUDY    64  43  45 CALM      30.02S
CADILLAC       PTCLDY    66  41  39 S7        30.07R
CHARLEVOIX     CLEAR     66  42  41 S10G18    30.02S
FRANKFORT      PTCLDY    69  50  51 SE13G20   30.00S
GAYLORD        CLEAR     61  42  49 S9        30.07R
GRAYLING       CLEAR     65  40  40 S6        30.08R
HARBOR SPRINGS CLEAR     65  40  39 CALM      30.01S
HOUGHTON LAKE  CLEAR     63  42  46 S8        30.09S
MANISTEE       CLEAR     65  51  60 SE7       30.01S
OSCODA         CLOUDY    66  52  59 S15G21    30.10S
PELLSTON       CLEAR     66  42  41 S9        30.01F
ROGERS CITY    CLEAR     64  46  53 S7        30.05S
TRAVERSE CITY  PTCLDY    68  44  42 VRB6      30.00S
$$
MIZ007>008-015-220300-
EASTERN UPPER MICHIGAN

CITY           SKY/WX    TMP DP  RH WIND       PRES   REMARKS
KINROSS        CLEAR     54  46  74 SE3       30.02R
MACKINAC ISLAN CLEAR     65  40  38 S9G16     30.00S
NEWBERRY       CLEAR     57  54  88 S8        29.98S
S. S. MARIE    CLEAR     59  50  72 E6        30.01S
MUNISING         N/A     63  56  78 S13G20    29.90R
$$
MIZ004>006-011>014-085-220300-
CENTRAL UPPER MICHIGAN

CITY           SKY/WX    TMP DP  RH WIND       PRES   REMARKS
MANISTIQUE     PTCLDY    59  54  82 S6        29.95F
ESCANABA       MOCLDY    62  56  80 S9        29.93S
MENOMINEE      CLEAR     65  56  72 S8        29.92
SAWYER-GWINN   CLEAR     59  54  82 S16       29.90S
$$
MIZ001>003-009>011-084-220300-
WESTERN UPPER MICHIGAN

CITY           SKY/WX    TMP DP  RH WIND       PRES   REMARKS
IRON MOUNTAIN  CLOUDY    61  52  72 SE8       29.88F
HOUGHTON       CLEAR     64  55  72 SE8       29.79F
COPPER HARBOR    N/A     63  53  70 SW9       29.80S
IRONWOOD       CLEAR     68  57  68 S13G24    29.74F
$$

ABBREVIATIONS USED IN REMARKS
   TC - TEMPERATURE IN CELSIUS
  WCI - WIND CHILL INDEX
   HX - HEAT INDEX
  VSB - VISIBILITY





USA.gov is the U.S. government's official web portal to all federal, state and local government web resources and services.